Location: Daouli
(14.8671°N, 3.2030°W)
Time: 02:12:11
(UTC+00:00)

GPS 2-12 Rocket1 - Pass Details

Date: 29 October 2020
Orbit: 586 x 651 km, 20.0° (Epoch: 02 December)

Event Time Altitude Azimuth Distance (km) Brightness Sun altitude
Rises 18:38:20 0° 278° (W) 2,801 7.9 -13.4°
Reaches altitude 10° 18:40:43 10° 272° (W) 1,895 6.9 -14.0°
Maximum altitude 18:44:57 45° 199° (SSW) 787 3.8 -15.0°
Enters shadow 18:48:19 15° 130° (SE) 1,583 4.8 -15.8°
